This is the latest recevied weather packets stored in our database for station/object KE8RXN. If no packets are shown the sender has not sent any weather packets the latest 10 day(s).
| Time | Temp. | Humidity | Pressure | Rain* | Wind** | Luminosity | Snow |
|---|---|---|---|---|---|---|---|
| 1777246431 | 18.89° C | 50% | 1020.9 hPa | 0 mm | - | 32 W/m² | - |
| 1777246129 | 18.89° C | 51% | 1020.8 hPa | 0 mm | - | 39 W/m² | - |
| 1777245827 | 19.44° C | 51% | 1021 hPa | 0 mm | - | 35 W/m² | - |
| 1777245524 | 19.44° C | 50% | 1020.9 hPa | 0 mm | - | 35 W/m² | - |
| 1777245220 | 19.44° C | 50% | 1020.9 hPa | 0 mm | - | 57 W/m² | - |
| 1777244916 | 19.44° C | 50% | 1021 hPa | 0 mm | - | 39 W/m² | - |
| 1777244611 | 19.44° C | 50% | 1020.7 hPa | 0 mm | - | 53 W/m² | - |
| 1777244308 | 19.44° C | 49% | 1020.8 hPa | 0 mm | - | 66 W/m² | - |
| 1777244006 | 20° C | 49% | 1020.8 hPa | 0 mm | - | 102 W/m² | - |
| 1777243703 | 20° C | 49% | 1020.8 hPa | 0 mm | - | 61 W/m² | - |
| 1777243400 | 20° C | 48% | 1020.8 hPa | 0 mm | - | 75 W/m² | - |
| 1777243095 | 20° C | 48% | 1021.1 hPa | 0 mm | - | 100 W/m² | - |
| 1777242792 | 20° C | 48% | 1021.2 hPa | 0 mm | - | 169 W/m² | - |
| 1777242489 | 20° C | 49% | 1021.1 hPa | 0 mm | - | 211 W/m² | - |
| 1777242185 | 20° C | 49% | 1021.1 hPa | 0 mm | - | 130 W/m² | - |
| 1777241883 | 20.56° C | 49% | 1021.2 hPa | 0 mm | - | 184 W/m² | - |
| 1777241580 | 20° C | 49% | 1021.2 hPa | 0 mm | - | 248 W/m² | - |
| 1777241277 | 20° C | 49% | 1021.2 hPa | 0 mm | - | 275 W/m² | - |
| 1777240974 | 20° C | 49% | 1021.2 hPa | 0 mm | - | 284 W/m² | - |
| 1777240672 | 20° C | 49% | 1021.2 hPa | 0 mm | - | 239 W/m² | - |
| 1777240370 | 20° C | 49% | 1021.2 hPa | 0 mm | - | 219 W/m² | - |
| 1777240067 | 20° C | 50% | 1021.3 hPa | 0 mm | - | 192 W/m² | - |
| 1777239765 | 20° C | 50% | 1021.3 hPa | 0 mm | - | 234 W/m² | - |
| 1777239460 | 20° C | 49% | 1021.4 hPa | 0 mm | - | 177 W/m² | - |
| 1777239158 | 20.56° C | 49% | 1021.3 hPa | 0 mm | - | 411 W/m² | - |
* Rain latest hour (hover to see other rain measurements)
** Current wind speed in m/s (hover to see current wind gust speed)